GW5014 Weather Reports


time (UTC)temp
C
wind
direction
speed
KPH
gust
KPH
rain 1hr
cm
rain 24hr
cm
rain mn
cm
humidity
%
barometer
mb
20260507000613 5 219 0.0 0.0 0.00 2.54 2.54 98 1007.6
20260507000108 5 219 0.0 0.0 0.00 2.54 2.54 98 1007.6
20260506235606 5 218 0.0 0.0 0.00 2.54 2.54 98 1007.5
20260506235106 5 219 0.0 0.0 0.00 2.54 2.54 98 1007.4
20260506234604 5 218 0.0 0.0 0.00 2.54 2.54 98 1007.5
20260506234101 5 221 0.0 0.0 0.00 2.54 2.54 98 1007.4
20260506233558 5 217 0.0 0.0 0.00 2.54 2.54 98 1007.3
20260506233054 5 212 0.0 0.0 0.00 2.54 2.54 98 1007.3
20260506232550 5 221 0.0 0.0 0.00 2.54 2.54 98 1007.1
20260506232046 5 215 0.0 0.0 0.00 2.54 2.54 98 1007.0
20260506231544 5 217 0.0 0.0 0.00 2.54 2.54 98 1007.0
20260506231042 5 241 0.0 0.0 0.00 2.54 2.54 98 1007.2
20260506230538 6 220 0.0 0.0 0.00 2.54 2.54 98 1007.0
20260506230035 6 218 0.0 0.0 0.00 2.54 2.54 98 1007.0
20260506225532 6 220 0.0 0.0 0.00 2.54 2.54 98 1006.9
20260506225028 6 216 0.0 0.0 0.00 2.54 2.54 98 1006.7
20260506224525 6 209 0.0 0.0 0.00 2.54 2.54 98 1006.6
20260506224022 6 205 0.0 0.0 0.00 2.54 2.54 98 1006.6
20260506223517 6 212 0.0 0.0 0.00 2.54 2.54 98 1006.6
20260506223014 6 217 0.0 0.0 0.00 2.54 2.54 98 1006.6
20260506222511 6 228 0.0 0.0 0.00 2.54 2.54 98 1006.3
20260506222008 6 209 0.0 0.0 0.00 2.54 2.54 98 1006.6
20260506221505 6 206 0.0 0.0 0.00 2.54 2.54 98 1006.3
20260506221003 6 207 0.0 0.0 0.00 2.54 2.54 98 1006.6
20260506220458 6 206 0.0 0.0 0.00 2.54 2.54 98 1006.6
20260506215955 6 212 0.0 0.0 0.00 2.54 2.54 98 1006.7
20260506215451 6 197 0.0 0.0 0.00 2.54 2.54 98 1006.8
20260506214947 6 210 0.0 0.0 0.00 2.54 2.54 98 1006.7
20260506214444 6 212 0.0 0.0 0.00 2.54 2.54 98 1006.8
20260506213942 6 224 0.0 0.0 0.00 2.54 2.54 98 1006.7
20260506213439 6 219 0.0 0.0 0.00 2.54 2.54 98 1006.4
20260506212936 6 226 0.0 0.0 0.00 2.54 2.54 98 1006.3
20260506212432 6 209 0.0 0.0 0.18 2.54 2.54 98 1006.3
20260506211932 6 218 0.0 0.0 0.36 2.54 2.54 98 1006.3
20260506211429 6 217 0.0 0.0 0.18 2.51 2.51 98 1006.3
20260506210926 6 214 0.0 0.0 0.00 2.49 2.49 98 1006.3
20260506210422 6 211 0.0 0.0 0.00 2.49 2.49 98 1006.6
20260506205920 6 212 0.0 0.0 0.00 2.49 2.49 98 1006.2
20260506205415 6 228 0.0 0.0 0.00 2.49 2.49 98 1006.1
20260506204912 6 203 0.0 0.0 0.00 2.49 2.49 98 1006.3
20260506204410 6 203 0.0 0.0 0.00 2.49 2.49 98 1006.1
20260506203907 6 197 0.0 0.0 0.00 2.49 2.49 97 1006.2
20260506203404 6 211 0.0 0.0 0.00 2.49 2.49 97 1006.4
20260506202901 6 191 0.0 0.0 0.00 2.49 2.49 97 1006.3
20260506202358 6 211 0.0 0.0 0.00 2.49 2.49 98 1006.3
20260506201854 6 211 0.0 0.0 0.13 2.49 2.49 98 1006.1
20260506201352 6 211 0.0 0.0 0.13 2.49 2.49 98 1006.3
20260506200848 6 208 0.0 0.0 0.00 2.46 2.46 98 1006.3
20260506200344 6 209 0.0 0.0 0.00 2.46 2.46 98 1006.3
20260506195841 6 211 0.0 0.0 0.00 2.46 2.46 98 1006.6
20260506195338 6 187 0.0 0.0 0.00 2.46 2.46 97 1006.2
20260506194835 6 203 0.0 0.0 0.00 2.46 2.46 98 1006.2
20260506194332 6 216 0.0 0.0 0.18 2.46 2.46 97 1006.3
20260506193829 6 201 0.0 0.0 0.18 2.46 2.46 97 1006.2
20260506193326 6 204 0.0 0.0 0.13 2.44 2.44 97 1006.4
20260506192822 6 208 0.0 0.0 0.13 2.44 2.44 98 1006.2
20260506192319 6 209 0.0 0.0 0.18 2.41 2.41 98 1006.1
20260506191816 6 215 0.0 0.0 0.18 2.41 2.41 97 1006.3
20260506191312 6 199 0.0 0.0 0.13 2.39 2.39 97 1006.3
20260506190809 6 201 0.0 0.0 0.13 2.39 2.39 98 1006.2
20260506190306 6 212 0.0 0.0 0.00 2.36 2.36 98 1006.0
20260506185803 6 212 0.0 0.0 0.00 2.36 2.36 98 1005.9
20260506185259 6 205 0.0 0.0 0.00 2.36 2.36 98 1006.0
20260506184757 6 199 0.0 0.0 0.00 2.36 2.36 98 1005.9
20260506184254 6 195 0.0 0.0 0.00 2.36 2.36 97 1005.9
20260506183751 6 200 0.0 0.0 0.00 2.36 2.36 97 1006.0
20260506183251 6 187 0.0 0.0 0.00 2.36 2.36 98 1006.0
20260506182749 6 211 0.0 0.0 0.00 2.36 2.36 98 1005.8
20260506182246 6 205 0.0 0.0 0.00 2.36 2.36 97 1005.9
20260506181744 6 203 0.0 0.0 0.00 2.36 2.36 97 1005.9
20260506181241 6 203 0.0 0.0 0.00 2.36 2.36 97 1006.1
20260506180738 6 198 0.0 0.0 0.00 2.36 2.36 98 1006.1
20260506180234 6 198 0.0 0.0 0.00 2.36 2.36 98 1006.0
20260506175730 5 199 0.0 0.0 0.00 2.36 2.36 97 1006.0
20260506175227 6 196 0.0 0.0 0.00 2.36 2.36 98 1006.3
20260506174725 5 201 0.0 0.0 0.00 2.36 2.36 98 1006.3
20260506174221 5 200 0.0 0.0 0.00 2.36 2.36 98 1006.3
20260506173719 5 192 0.0 0.0 0.18 2.36 2.36 98 1006.3
20260506173216 5 202 0.0 0.0 0.18 2.36 2.36 98 1006.3
20260506172713 5 209 0.0 0.0 0.00 2.34 2.34 98 1006.4
20260506172209 5 191 0.0 0.0 0.00 2.34 2.34 98 1006.4
20260506171707 5 199 0.0 0.0 0.00 2.34 2.34 98 1006.6
20260506171204 5 199 0.0 0.0 0.13 2.34 2.34 98 1006.6
20260506170702 5 191 0.0 0.0 0.13 2.34 2.34 98 1006.8
20260506170158 5 194 0.0 0.0 0.30 2.31 2.31 98 1006.8
20260506165657 5 201 0.0 0.0 0.30 2.31 2.31 98 1006.8
20260506165153 5 203 0.0 0.0 0.30 2.29 2.29 98 1007.1
20260506164650 5 205 0.0 0.0 0.48 2.26 2.26 98 1007.0
20260506164148 5 211 0.0 0.0 0.48 2.24 2.24 98 1007.0
20260506163643 5 183 0.0 0.0 0.30 2.18 2.18 98 1007.0
20260506163139 5 197 0.0 0.0 0.30 2.16 2.16 98 1007.2
20260506162635 5 207 0.0 0.0 0.48 2.13 2.13 99 1007.1
20260506162133 5 180 0.0 0.0 0.43 2.11 2.11 99 1007.3
20260506161630 5 192 0.0 0.0 0.48 2.08 2.08 99 1007.0
20260506161127 5 213 0.0 0.0 0.30 2.03 2.03 99 1007.1
20260506160624 4 176 0.0 0.0 0.30 2.01 2.01 99 1006.9
20260506160121 4 185 0.0 0.0 0.30 1.98 1.98 99 1007.4
20260506155620 4 181 0.0 0.0 0.30 1.96 1.96 99 1007.1
20260506155116 4 189 0.0 0.0 0.30 1.83 1.83 99 1007.1
20260506153218 4 211 0.0 0.0 0.30 1.80 1.80 99 1007.2
20260506152715 4 192 0.0 0.0 0.30 1.78 1.78 99 1007.3
20260506152213 4 210 0.0 0.0 0.48 1.75 1.75 99 1007.4
20260506151712 4 216 0.0 0.0 0.43 1.73 1.73 99 1007.3
20260506151208 4 215 0.0 0.0 0.43 1.68 1.68 99 1007.5
20260506150704 3 208 0.0 0.0 0.48 1.65 1.65 99 1007.6
20260506150201 3 215 0.0 0.0 0.48 1.63 1.63 99 1007.4
20260506145658 4 210 0.0 0.0 0.48 1.57 1.57 98 1007.8
20260506145154 4 211 0.0 0.0 0.43 1.55 1.55 98 1007.4
20260506144652 4 193 0.0 0.0 0.43 1.50 1.50 98 1007.6
20260506144149 4 209 0.0 0.0 0.48 1.47 1.47 98 1007.5
20260506143646 4 170 0.0 0.0 0.30 1.42 1.42 98 1007.6
20260506143144 3 206 0.0 0.0 0.43 1.40 1.40 98 1007.4
20260506142643 3 218 0.0 0.0 0.48 1.37 1.37 98 1007.5
20260506142140 3 211 0.0 0.0 0.30 1.32 1.32 98 1007.3
20260506141638 3 207 0.0 0.0 0.48 1.30 1.30 98 1007.3
20260506141136 3 210 0.0 0.0 0.66 1.27 1.27 98 1007.4
20260506140633 3 214 0.0 0.0 0.43 1.22 1.22 98 1007.5
20260506140130 4 212 0.0 0.0 0.48 1.19 1.19 98 1007.4
20260506135627 3 205 0.0 0.0 0.43 1.17 1.17 98 1007.2
20260506135123 3 185 0.0 0.0 0.43 1.12 1.12 98 1007.0
20260506134620 3 213 0.0 0.0 0.30 1.09 1.09 98 1006.8
20260506134115 3 173 0.0 0.0 0.30 1.07 1.07 98 1007.0
20260506133613 3 183 0.0 0.0 0.30 1.04 1.04 98 1007.2
20260506133110 3 199 0.0 0.0 0.43 1.02 1.02 98 1007.1
20260506132608 3 192 0.0 0.0 0.48 0.99 0.99 98 1007.2
20260506132104 4 212 0.0 0.0 0.30 0.97 0.97 98 1007.3
20260506131602 4 207 0.0 0.0 0.30 0.91 0.91 98 1007.3
20260506131058 4 207 0.0 0.0 0.30 0.91 0.91 98 1006.9
20260506130555 4 209 0.0 0.0 0.18 0.86 0.86 98 1007.1
20260506130052 4 201 0.0 0.0 0.13 0.84 0.84 98 1007.1
20260506125550 4 200 0.0 0.0 0.13 0.84 0.84 98 1006.9
20260506125048 4 210 0.0 0.0 0.18 0.81 0.81 98 1007.2
20260506124545 3 187 0.0 0.0 0.18 0.81 0.81 97 1007.2
20260506124043 3 185 0.0 0.0 0.13 0.79 0.79 97 1007.3
20260506123540 3 186 0.0 0.0 0.13 0.79 0.79 97 1007.5
20260506123039 3 204 0.0 0.0 0.18 0.76 0.76 97 1007.3
20260506122535 4 205 0.0 0.0 0.30 0.76 0.76 98 1007.6
20260506122034 3 206 0.0 0.0 0.30 0.74 0.74 98 1007.6
20260506121531 3 221 0.0 0.0 0.30 0.74 0.74 97 1008.1
20260506121027 3 193 0.0 0.0 0.30 0.71 0.71 97 1008.2
20260506120525 3 208 0.0 0.0 0.30 0.69 0.69 97 1008.2
20260506120022 4 211 0.0 0.0 0.18 0.64 0.64 98 1008.3
20260506115520 3 218 0.0 0.0 0.30 0.64 0.64 98 1008.2
20260506115018 3 212 0.0 0.0 0.30 0.61 0.61 98 1008.2
20260506114515 3 199 0.0 0.0 0.30 0.58 0.58 98 1008.3
20260506114014 4 211 0.0 0.0 0.43 0.56 0.56 98 1008.2
20260506113511 4 213 0.0 0.0 0.48 0.53 0.53 97 1008.1
20260506113008 4 215 0.0 0.0 0.18 0.48 0.48 97 1008.2
20260506112505 4 218 0.0 0.0 0.13 0.46 0.46 97 1008.2
20260506112002 4 216 0.0 0.0 0.30 0.46 0.46 97 1008.0
20260506111500 4 209 0.0 0.0 0.30 0.43 0.43 97 1007.9
20260506110956 4 208 0.0 0.0 0.43 0.41 0.41 97 1008.3
20260506110455 4 214 0.0 0.0 0.48 0.38 0.38 97 1008.4
20260506105951 4 213 0.0 0.0 0.18 0.33 0.33 97 1008.2
20260506105447 4 209 0.0 0.0 0.36 0.33 0.33 97 1007.9
20260506104945 4 204 0.0 0.0 0.18 0.30 0.30 96 1007.7
20260506104443 4 213 0.0 0.0 0.00 0.28 0.28 96 1007.8
20260506103941 4 213 0.0 0.0 0.13 0.28 0.28 96 1007.8
20260506103438 4 218 0.0 0.0 0.13 0.28 0.28 96 1007.9
20260506102934 4 212 0.0 0.0 0.18 0.25 0.25 95 1007.7
20260506102433 5 206 0.0 0.0 0.18 0.25 0.25 95 1007.8
20260506101930 5 206 0.0 0.0 0.00 0.23 0.23 95 1007.8
20260506101426 5 212 0.0 0.0 0.13 0.23 0.23 94 1008.0
20260506100923 5 217 0.0 0.0 0.13 0.23 0.23 95 1008.0
20260506100421 5 217 0.0 0.0 0.00 0.20 0.20 96 1008.0
20260506095919 5 216 0.0 0.0 0.18 0.20 0.20 96 1008.1
20260506095417 5 218 0.0 0.0 0.18 0.20 0.20 97 1008.1
20260506094913 5 218 0.0 0.0 0.00 0.18 0.18 97 1008.0
20260506094412 5 211 0.0 0.0 0.00 0.18 0.18 97 1007.9
20260506093909 5 208 0.0 0.0 0.13 0.18 0.18 97 1008.0
20260506093407 5 194 0.0 0.0 0.13 0.18 0.18 97 1008.3
20260506092904 5 193 0.0 0.0 0.00 0.15 0.15 96 1007.6
20260506092402 5 218 0.0 0.0 0.00 0.15 0.15 96 1008.2
20260506091858 5 186 0.0 0.0 0.00 0.15 0.15 97 1008.1
20260506091357 6 216 0.0 0.0 0.00 0.15 0.15 97 1008.4
20260506090853 6 215 0.0 0.0 0.00 0.15 0.15 97 1008.1
20260506090351 6 215 0.0 0.0 0.00 0.15 0.15 97 1008.0
20260506085848 6 214 0.0 0.0 0.00 0.15 0.15 97 1007.9
20260506085344 5 214 0.0 0.0 0.00 0.15 0.15 97 1007.7
20260506084841 5 200 0.0 0.0 0.00 0.15 0.15 96 1008.0
20260506084338 6 219 0.0 0.0 0.00 0.15 0.15 97 1008.5
20260506083834 6 219 0.0 0.0 0.00 0.15 0.15 96 1008.4
20260506083332 6 212 0.0 0.0 0.18 0.15 0.15 96 1008.1
20260506082829 6 193 0.0 0.0 0.18 0.15 0.15 96 1008.1
20260506082325 6 207 0.0 0.0 0.13 0.13 0.13 96 1008.6
20260506081822 6 221 0.0 0.0 0.13 0.13 0.13 96 1008.9
20260506081320 6 221 0.0 0.0 0.00 0.10 0.10 96 1008.4
20260506080817 6 208 0.0 0.0 0.00 0.10 0.10 96 1007.9
20260506080313 6 208 0.0 0.0 0.00 0.10 0.10 96 1008.2
20260506073258 6 207 0.0 0.0 0.00 0.10 0.10 94 1008.2
20260506072754 6 212 0.0 0.0 0.00 0.10 0.10 94 1008.5
20260506072252 6 213 0.0 0.0 0.00 0.10 0.10 95 1008.3
20260506071749 6 206 0.0 0.0 0.00 0.10 0.10 96 1008.2
20260506071247 6 213 0.0 0.0 0.00 0.10 0.10 96 1008.1
20260506070744 7 212 0.0 0.0 0.00 0.10 0.10 96 1008.3
20260506070241 7 214 0.0 0.0 0.00 0.10 0.10 97 1008.1
20260506062218 7 235 0.0 0.0 0.00 0.10 0.10 97 1008.4
20260506061714 7 239 0.0 0.0 0.00 0.10 0.10 97 1008.3
20260506061211 7 185 0.0 0.0 0.00 0.10 0.10 97 1008.3
20260506060710 7 222 0.0 0.0 0.18 0.10 0.10 97 1008.2
20260506060206 7 215 0.0 0.0 0.18 0.10 0.10 97 1008.2
20260506051138 7 218 0.0 0.0 0.00 0.08 0.08 94 1008.3
20260506050637 7 221 1.6 3.2 0.00 0.08 0.08 94 1008.5
20260506050134 8 220 0.0 0.0 0.00 0.08 0.08 96 1008.9
20260506045127 8 251 0.0 0.0 0.13 0.08 0.08 96 1008.5
20260506044625 8 205 0.0 0.0 0.00 0.05 0.05 96 1008.5
20260506044121 8 217 0.0 0.0 0.00 0.05 0.05 96 1008.9
20260506043619 8 217 0.0 0.0 0.18 0.05 0.05 96 1008.8
20260506043117 8 212 0.0 0.0 0.18 0.05 0.05 96 1008.8
20260506042615 8 216 0.0 0.0 0.00 0.03 0.03 96 1008.4
20260506042113 8 195 0.0 0.0 0.00 0.03 0.03 96 1008.5
20260506041612 8 215 0.0 0.0 0.13 0.03 0.03 96 1008.2
20260506041108 8 178 0.0 0.0 0.13 0.03 0.03 96 1008.6
20260506040606 8 216 0.0 1.6 0.00 0.00 0.00 96 1008.5
20260506035559 8 217 0.0 0.0 0.00 0.66 0.66 97 1008.3
20260506035055 8 216 0.0 0.0 0.00 0.66 0.66 97 1008.1
20260506034553 8 229 0.0 0.0 0.00 0.66 0.66 96 1007.9
20260506034050 8 225 0.0 0.0 0.00 0.66 0.66 96 1007.7
20260506033547 8 220 0.0 0.0 0.00 0.66 0.66 96 1007.8
20260506033044 8 218 0.0 0.0 0.18 0.66 0.66 96 1007.9
20260506032541 8 188 0.0 0.0 0.18 0.66 0.66 96 1007.7
20260506032038 8 203 0.0 0.0 0.00 0.64 0.64 96 1007.7
20260506031536 9 213 0.0 0.0 0.00 0.64 0.64 95 1008.0
20260506031032 9 188 0.0 0.0 0.18 0.64 0.64 96 1007.9
20260506030531 9 209 0.0 0.0 0.18 0.64 0.64 95 1008.0
20260506030028 9 215 0.0 0.0 0.00 0.61 0.61 95 1007.9
20260506025525 9 218 0.0 0.0 0.00 0.61 0.61 95 1007.9
20260506025020 9 205 0.0 0.0 0.13 0.61 0.61 95 1007.9
20260506024517 9 215 0.0 0.0 0.13 0.61 0.61 95 1007.9
20260506024014 9 216 0.0 0.0 0.00 0.58 0.58 94 1008.1
20260506023510 9 207 0.0 0.0 0.00 0.58 0.58 94 1008.2
20260506023008 9 213 0.0 0.0 0.00 0.58 0.58 92 1008.3
20260506022505 9 210 0.0 0.0 0.00 0.58 0.58 92 1008.2
20260506022002 10 207 0.0 0.0 0.00 0.58 0.58 92 1007.8
20260506021500 9 219 0.0 0.0 0.00 0.58 0.58 91 1008.1
20260506020957 10 208 0.0 0.0 0.00 0.58 0.58 94 1008.2
20260506020454 10 206 0.0 0.0 0.00 0.58 0.58 93 1007.9
20260506015951 10 205 0.0 0.0 0.00 0.58 0.58 91 1008.1
20260506015449 10 212 0.0 0.0 0.00 0.58 0.58 92 1008.0
20260506014945 10 201 0.0 0.0 0.18 0.58 0.58 92 1008.1
20260506014443 10 215 0.0 0.0 0.18 0.58 0.58 88 1008.0
20260506013939 10 273 0.0 0.0 0.13 0.56 0.56 86 1008.1
20260506013437 10 219 0.0 0.0 0.13 0.56 0.56 85 1008.0
20260506012933 11 247 0.0 1.6 0.00 0.53 0.53 80 1007.7
20260506012430 11 238 0.0 0.0 0.00 0.53 0.53 76 1007.6
20260506011926 12 226 1.6 3.2 0.00 0.53 0.53 71 1007.7
20260506011424 12 268 3.2 4.8 0.00 0.53 0.53 72 1007.7
20260506010920 12 244 1.6 4.8 0.00 0.53 0.53 72 1007.5
20260506010420 12 230 4.8 4.8 0.00 0.53 0.53 71 1007.5
20260506005915 12 336 4.8 6.4 0.00 0.53 0.53 72 1007.4
20260506005414 12 240 4.8 6.4 0.00 0.53 0.53 74 1007.1
20260506004908 12 323 6.4 9.7 0.00 0.53 0.53 77 1007.0
20260506004407 12 272 1.6 3.2 0.00 0.53 0.53 79 1006.8
20260506003902 13 244 0.0 1.6 0.00 0.53 0.53 80 1006.8
20260506003358 13 334 4.8 6.4 0.00 0.53 0.53 79 1006.6
20260506002855 13 248 1.6 3.2 0.00 0.53 0.53 78 1006.1
20260506002351 14 226 1.6 3.2 0.00 0.53 0.53 79 1005.9
20260506001847 14 217 1.6 3.2 0.00 0.53 0.53 79 1005.7
20260506001344 14 197 3.2 4.8 0.00 0.53 0.53 80 1005.5
20260506000841 14 203 1.6 1.6 0.00 0.53 0.53 80 1005.4